Blytheville Muni Airport, AR

12:27 AM CDT on June 26, 2017 (GMT -0500)
Blytheville Municipal

Weather History for KHKA - October, 2012

Change the Weather History Date:

Wednesday, October 17, 2012

  Actual Average Record
Temperature  
Mean Temperature 68 °F -  
Max Temperature 80 °F 73 °F 94 °F (1953)
Min Temperature 57 °F 51 °F 31 °F (1943)
Cooling Degree Days 3    
Growing Degree Days 18 (Base 50)    
Moisture  
Dew Point 58 °F    
Average Humidity 77    
Maximum Humidity 94    
Minimum Humidity 47    
Precipitation  
Precipitation 0.09 in - - ()
Sea Level Pressure  
Sea Level Pressure 29.62 in    
Wind  
Wind Speed 12 mph (SW)    
Max Wind Speed 31 mph    
Max Gust Speed 45 mph    
Visibility 8 miles    
Events Rain , Thunderstorm    
Averages and records for this station are not official NWS values.
T = Trace of Precipitation, MM = Missing Value Source: NWS Daily Summary

Daily Weather History Graph

Daily Weather History Graph

Search for Another Location

Airport or City:

Trip Planner

Search our weather history database for the weather conditions in past years. The results will help you decide how hot, cold, wet, or windy it might be!

Date:

Astronomy

Oct. 17, 2012 Rise Set
Actual Time 7:08 AM CDT 6:20 PM CDT
Civil Twilight 6:42 AM CDT 6:46 PM CDT
Nautical Twilight 6:12 AM CDT 7:15 PM CDT
Astronomical Twilight 5:42 AM CDT 7:45 PM CDT
Moon 9:36 AM CDT (10/17) 8:02 PM CDT (10/17)
Length of Visible Light 12h 03m
Length of Day
11h 12m
Waxing Crescent, 7% of the Moon is Illuminated
Oct 17
Waxing Crescent
Oct 21
First Quarter
Oct 29
Full
Nov 6
Last Quarter
Nov 13
New

Hourly Weather History & Observations

Time (CDT) Temp. Dew Point Humidity Pressure Visibility Wind Dir Wind Speed Gust Speed Precip Events Conditions
12:53 AM 57.9 °F 52.0 °F 81% 29.79 in 10.0 mi South 9.2 mph - N/A   Clear
1:53 AM 57.0 °F 52.0 °F 83% 29.78 in 10.0 mi South 9.2 mph - N/A   Clear
2:53 AM 57.9 °F 52.0 °F 81% 29.76 in 10.0 mi South 10.4 mph - N/A   Partly Cloudy
3:53 AM 57.9 °F 53.1 °F 84% 29.74 in 10.0 mi South 10.4 mph - N/A   Mostly Cloudy
4:53 AM 59.0 °F 53.1 °F 81% 29.73 in 10.0 mi South 9.2 mph - N/A   Mostly Cloudy
5:53 AM 62.1 °F 52.0 °F 70% 29.73 in 10.0 mi South 9.2 mph - N/A   Mostly Cloudy
6:53 AM 61.0 °F 52.0 °F 72% 29.73 in 10.0 mi South 9.2 mph - N/A   Scattered Clouds
7:53 AM 63.0 °F 52.0 °F 67% 29.73 in 10.0 mi South 10.4 mph - N/A   Overcast
8:53 AM 66.0 °F 50.0 °F 56% 29.73 in 10.0 mi South 12.7 mph - N/A   Clear
9:53 AM 70.0 °F 51.1 °F 51% 29.72 in 10.0 mi SSW 15.0 mph 28.8 mph N/A   Clear
10:53 AM 73.0 °F 54.0 °F 51% 29.70 in 10.0 mi South 17.3 mph 26.5 mph N/A   Clear
11:53 AM 75.0 °F 55.9 °F 51% 29.68 in 10.0 mi South 17.3 mph 34.5 mph N/A   Clear
12:53 PM 77.0 °F 57.0 °F 50% 29.65 in 10.0 mi SSW 19.6 mph 29.9 mph N/A   Clear
1:53 PM 79.0 °F 57.0 °F 47% 29.61 in 10.0 mi South 21.9 mph 31.1 mph N/A   Partly Cloudy
2:53 PM 79.0 °F 57.9 °F 48% 29.58 in 10.0 mi SSW 17.3 mph 31.1 mph N/A   Partly Cloudy
3:53 PM 78.1 °F 57.9 °F 50% 29.56 in 10.0 mi SSW 19.6 mph 31.1 mph N/A   Mostly Cloudy
4:53 PM 77.0 °F 59.0 °F 54% 29.55 in 10.0 mi South 18.4 mph 28.8 mph N/A   Overcast
6:53 PM 71.1 °F 61.0 °F 70% 29.47 in 10.0 mi South 20.7 mph 27.6 mph 0.01 in   Scattered Clouds
7:12 PM 69.8 °F 62.6 °F 78% 29.46 in 10.0 mi South 16.1 mph 25.3 mph 0.00 in Rain , Thunderstorm Light Rain
7:53 PM 68.0 °F 63.0 °F 84% 29.52 in 2.5 mi WNW 13.8 mph 21.9 mph 0.01 in Rain , Thunderstorm Heavy Thunderstorms and Rain
7:57 PM 66.2 °F 64.4 °F 94% 29.52 in 1.8 mi WSW 6.9 mph 20.7 mph 0.00 in Rain , Thunderstorm Heavy Thunderstorms and Rain
8:05 PM 66.2 °F 64.4 °F 94% 29.54 in 1.8 mi SW 12.7 mph 19.6 mph N/A Rain , Thunderstorm Heavy Rain
8:07 PM 66.2 °F 64.4 °F 94% 29.53 in 2.0 mi SW 15.0 mph 24.2 mph N/A Rain , Thunderstorm Heavy Rain
8:10 PM 66.2 °F 64.4 °F 94% 29.52 in 3.0 mi SW 10.4 mph 24.2 mph N/A Rain , Thunderstorm Heavy Rain
8:32 PM 64.4 °F 62.6 °F 94% 29.51 in 10.0 mi SSW 16.1 mph 23.0 mph N/A Thunderstorm Overcast
8:45 PM 64.4 °F 62.6 °F 94% 29.51 in 2.5 mi West 9.2 mph - N/A Rain , Thunderstorm Heavy Thunderstorms and Rain
8:53 PM 66.0 °F 64.0 °F 93% 29.54 in 1.8 mi WSW 15.0 mph 21.9 mph N/A Rain , Thunderstorm Heavy Thunderstorms and Rain
8:57 PM 66.2 °F 64.4 °F 94% 29.57 in 0.8 mi West 31.1 mph 44.9 mph N/A Thunderstorm Unknown
9:09 PM 60.8 °F 59.0 °F 94% 29.57 in 2.0 mi WNW 11.5 mph 21.9 mph N/A Rain , Thunderstorm Heavy Thunderstorms and Rain
9:18 PM 62.6 °F 60.8 °F 94% 29.57 in 6.0 mi WNW 11.5 mph - N/A Rain , Thunderstorm Heavy Thunderstorms and Rain
9:41 PM 62.6 °F 59.0 °F 88% 29.54 in 10.0 mi NNW 8.1 mph - N/A Rain Light Rain
9:53 PM 62.1 °F 59.0 °F 90% 29.57 in 10.0 mi West 3.5 mph - N/A Rain Light Rain
10:53 PM 61.0 °F 57.9 °F 90% 29.62 in 10.0 mi NW 10.4 mph - 0.03 in   Mostly Cloudy
11:53 PM 59.0 °F 55.9 °F 90% 29.68 in 10.0 mi WNW 5.8 mph - 0.04 in   Partly Cloudy